• In Italy
  • List of Countries
  • For 7 days
  • Water Temperature
  • Satellite Maps
  • Weather Map
  • Weather Widgets
  • user-avatar
    Login

    Hourly Weather Artashat

    Today, 23 June, Saturday

    Time Temperature Precipitation Wind Pressure Humidity
    00:00 +16°C° 0 mm 1 mps 602 mmHg 57%
    01:00 +15°C° 0 mm 1 mps 601 mmHg 58%
    02:00 +15°C° 0 mm 1 mps 601 mmHg 60%
    03:00 +13°C° 0 mm 1 mps 600 mmHg 63%
    04:00 +14°C° 0 mm 1 mps 601 mmHg 61%
    05:00 +15°C° 0 mm 1 mps 601 mmHg 58%
    06:00 +16°C° 0 mm 1 mps 602 mmHg 56%
    07:00 +18°C° 0 mm 1 mps 602 mmHg 51%
    08:00 +20°C° 0 mm 1 mps 602 mmHg 46%
    09:00 +21°C° 0 mm 1 mps 603 mmHg 43%
    10:00 +22°C° 0.2 mm 1 mps 603 mmHg 40%
    11:00 +23°C° 0.2 mm 1 mps 603 mmHg 37%
    12:00 +24°C° 0.2 mm 1 mps 603 mmHg 35%
    13:00 +24°C° 0 mm 1 mps 603 mmHg 34%
    14:00 +24°C° 0 mm 1 mps 603 mmHg 33%
    15:00 +24°C° 0 mm 1 mps 603 mmHg 32%
    16:00 +24°C° 0 mm 2 mps 603 mmHg 33%
    17:00 +24°C° 0 mm 2 mps 604 mmHg 33%
    18:00 +24°C° 0 mm 2 mps 604 mmHg 34%
    19:00 +21°C° 0 mm 2 mps 603 mmHg 39%
    20:00 +19°C° 0 mm 2 mps 603 mmHg 45%
    21:00 +18°C° 0 mm 1 mps 602 mmHg 50%
    22:00 +18°C° 0 mm 1 mps 602 mmHg 52%
    23:00 +16°C° 0 mm 1 mps 602 mmHg 54%

    Tomorrow, 24 June, Sunday

    Time Temperature Precipitation Wind Pressure Humidity
    00:00 +15°C° 0 mm 1 mps 602 mmHg 56%
    01:00 +15°C° 0 mm 1 mps 602 mmHg 57%
    02:00 +14°C° 0 mm 1 mps 602 mmHg 59%
    03:00 +14°C° 0 mm 1 mps 602 mmHg 60%
    04:00 +15°C° 0 mm 1 mps 602 mmHg 59%
    05:00 +15°C° 0 mm 1 mps 603 mmHg 57%
    06:00 +16°C° 0 mm 1 mps 603 mmHg 56%
    07:00 +19°C° 0 mm 1 mps 604 mmHg 50%
    08:00 +19°C° 0 mm 2 mps 604 mmHg 45%
    09:00 +21°C° 0 mm 2 mps 604 mmHg 39%
    10:00 +23°C° 0 mm 2 mps 604 mmHg 36%
    11:00 +24°C° 0 mm 2 mps 605 mmHg 33%
    12:00 +25°C° 0 mm 2 mps 605 mmHg 30%
    13:00 +26°C° 0 mm 2 mps 605 mmHg 29%
    14:00 +27°C° 0 mm 2 mps 605 mmHg 27%
    15:00 +27°C° 0 mm 3 mps 605 mmHg 26%
    16:00 +27°C° 0 mm 3 mps 605 mmHg 27%
    17:00 +26°C° 0 mm 3 mps 605 mmHg 28%
    18:00 +26°C° 0 mm 3 mps 605 mmHg 29%
    19:00 +24°C° 0 mm 3 mps 604 mmHg 34%
    20:00 +21°C° 0 mm 2 mps 604 mmHg 38%
    21:00 +19°C° 0 mm 2 mps 604 mmHg 43%
    22:00 +18°C° 0 mm 2 mps 603 mmHg 46%
    23:00 +17°C° 0 mm 2 mps 603 mmHg 48%

    Day after tomorrow, 25 June, Monday

    Time Temperature Precipitation Wind Pressure Humidity
    00:00 +17°C° 0 mm 2 mps 603 mmHg 51%
    01:00 +16°C° 0 mm 2 mps 603 mmHg 53%
    02:00 +15°C° 0 mm 2 mps 603 mmHg 56%
    03:00 +15°C° 0 mm 2 mps 603 mmHg 58%
    04:00 +16°C° 0 mm 2 mps 603 mmHg 57%
    05:00 +16°C° 0 mm 2 mps 603 mmHg 57%
    06:00 +17°C° 0 mm 2 mps 604 mmHg 56%
    07:00 +18°C° 0 mm 2 mps 604 mmHg 50%
    08:00 +20°C° 0 mm 2 mps 605 mmHg 44%
    09:00 +23°C° 0 mm 2 mps 605 mmHg 38%
    10:00 +24°C° 0 mm 2 mps 606 mmHg 35%
    11:00 +26°C° 0 mm 3 mps 606 mmHg 32%
    12:00 +27°C° 0 mm 3 mps 606 mmHg 28%
    13:00 +28°C° 0 mm 3 mps 606 mmHg 27%
    14:00 +28°C° 0 mm 3 mps 606 mmHg 26%
    15:00 +29°C° 0 mm 3 mps 606 mmHg 25%
    16:00 +28°C° 0 mm 3 mps 606 mmHg 26%
    17:00 +28°C° 0 mm 3 mps 606 mmHg 27%
    18:00 +27°C° 0 mm 3 mps 605 mmHg 28%
    19:00 +25°C° 0 mm 3 mps 605 mmHg 34%
    20:00 +23°C° 0 mm 2 mps 605 mmHg 40%
    21:00 +20°C° 0 mm 2 mps 604 mmHg 45%
    22:00 +19°C° 0 mm 2 mps 604 mmHg 48%
    23:00 +18°C° 0 mm 2 mps 604 mmHg 50%

    26 June, Tuesday

    Time Temperature Precipitation Wind Pressure Humidity
    00:00 +17°C° 0 mm 2 mps 603 mmHg 53%
    01:00 +18°C° 0 mm 1 mps 603 mmHg 55%
    02:00 +16°C° 0 mm 1 mps 603 mmHg 57%
    03:00 +16°C° 0 mm 1 mps 603 mmHg 59%
    04:00 +16°C° 0 mm 1 mps 603 mmHg 57%
    05:00 +18°C° 0 mm 1 mps 604 mmHg 56%
    06:00 +19°C° 0 mm 1 mps 604 mmHg 54%
    07:00 +21°C° 0 mm 1 mps 604 mmHg 48%
    08:00 +21°C° 0 mm 2 mps 605 mmHg 42%
    09:00 +24°C° 0 mm 2 mps 605 mmHg 35%
    10:00 +25°C° 0 mm 2 mps 606 mmHg 32%
    11:00 +27°C° 0 mm 2 mps 606 mmHg 29%
    12:00 +28°C° 0 mm 2 mps 606 mmHg 25%
    13:00 +29°C° 0 mm 2 mps 606 mmHg 24%
    14:00 +30°C° 0 mm 2 mps 606 mmHg 22%
    15:00 +30°C° 0 mm 3 mps 606 mmHg 21%
    16:00 +30°C° 0 mm 2 mps 606 mmHg 22%
    17:00 +29°C° 0 mm 2 mps 606 mmHg 23%
    18:00 +29°C° 0 mm 2 mps 605 mmHg 25%
    19:00 +26°C° 0 mm 2 mps 605 mmHg 30%
    20:00 +24°C° 0 mm 2 mps 604 mmHg 36%
    21:00 +21°C° 0 mm 1 mps 604 mmHg 42%
    22:00 +21°C° 0 mm 1 mps 604 mmHg 44%
    23:00 +20°C° 0 mm 1 mps 603 mmHg 47%

    27 June, Wednesday

    Time Temperature Precipitation Wind Pressure Humidity
    00:00 +19°C° 0 mm 1 mps 603 mmHg 50%
    01:00 +19°C° 0 mm 1 mps 603 mmHg 52%
    02:00 +18°C° 0 mm 1 mps 603 mmHg 54%
    03:00 +18°C° 0 mm 1 mps 603 mmHg 56%
    04:00 +18°C° 0 mm 1 mps 603 mmHg 55%
    05:00 +19°C° 0 mm 1 mps 604 mmHg 54%
    06:00 +20°C° 0 mm 1 mps 604 mmHg 52%
    07:00 +22°C° 0 mm 1 mps 605 mmHg 46%
    08:00 +24°C° 0 mm 1 mps 605 mmHg 39%
    09:00 +25°C° 0 mm 1 mps 606 mmHg 32%
    10:00 +27°C° 0 mm 1 mps 606 mmHg 29%
    11:00 +28°C° 0 mm 2 mps 606 mmHg 26%
    12:00 +29°C° 0 mm 2 mps 606 mmHg 23%
    13:00 +30°C° 0 mm 2 mps 606 mmHg 22%
    14:00 +31°C° 0 mm 2 mps 606 mmHg 20%
    15:00 +31°C° 0 mm 2 mps 606 mmHg 19%
    16:00 +31°C° 0 mm 2 mps 606 mmHg 20%
    17:00 +30°C° 0 mm 2 mps 606 mmHg 21%
    18:00 +30°C° 0 mm 2 mps 606 mmHg 22%
    19:00 +27°C° 0 mm 2 mps 605 mmHg 27%
    20:00 +25°C° 0 mm 2 mps 605 mmHg 33%
    21:00 +21°C° 0 mm 2 mps 604 mmHg 38%
    22:00 +20°C° 0 mm 2 mps 604 mmHg 40%
    23:00 +20°C° 0 mm 2 mps 604 mmHg 43%

    28 June, Thursday

    Time Temperature Precipitation Wind Pressure Humidity
    00:00 +19°C° 0 mm 2 mps 604 mmHg 45%
    01:00 +19°C° 0 mm 2 mps 604 mmHg 47%
    02:00 +18°C° 0 mm 2 mps 603 mmHg 50%
    03:00 +18°C° 0 mm 1 mps 603 mmHg 53%
    04:00 +19°C° 0 mm 1 mps 604 mmHg 53%
    05:00 +20°C° 0 mm 1 mps 604 mmHg 53%
    06:00 +20°C° 0 mm 1 mps 605 mmHg 53%
    07:00 +22°C° 0 mm 1 mps 605 mmHg 47%
    08:00 +24°C° 0 mm 2 mps 606 mmHg 41%
    09:00 +25°C° 0 mm 2 mps 606 mmHg 35%
    10:00 +27°C° 0 mm 2 mps 606 mmHg 32%
    11:00 +28°C° 0 mm 2 mps 607 mmHg 29%
    12:00 +29°C° 0 mm 3 mps 607 mmHg 25%
    13:00 +30°C° 0 mm 3 mps 607 mmHg 24%
    14:00 +31°C° 0 mm 3 mps 607 mmHg 23%
    15:00 +31°C° 0 mm 3 mps 607 mmHg 21%
    16:00 +31°C° 0 mm 3 mps 607 mmHg 22%
    17:00 +30°C° 0 mm 4 mps 607 mmHg 24%
    18:00 +30°C° 0 mm 4 mps 607 mmHg 25%
    19:00 +27°C° 0 mm 3 mps 606 mmHg 31%
    20:00 +25°C° 0 mm 3 mps 606 mmHg 36%
    21:00 +23°C° 0 mm 2 mps 605 mmHg 42%
    22:00 +21°C° 0 mm 2 mps 605 mmHg 45%
    23:00 +20°C° 0 mm 2 mps 605 mmHg 48%
    Show more